IkaScore Players IkaScore Alliances






Support IkaScore

Please donate to
me@ikascore.com

using Skrill
Brazil Eunomia
Ikariam players: 300
AverageTotal
Pontuação total: 1523344 457003257
Mestres de Alvenaria: 1268551 380565359
Níveis de construção: 2173 651868
Cientistas: 235495 70648360
Níveis de pesquisa: 262 78504
Generais: 6358 1907275
Ouro: 373195 2129452868
Pontos ofensivos: 197 58998
Pontos de defesa: 380 113954
Pontuação comercial: 266 79715
Recursos: 970543 291162816
doar: 100988 30296454
Score vulnerability: 364475 109342392
Gold vulnerability: 2470 741028
Population: 12941 3882263
Donations to score: 360591 108177272

Digg! Delicious! IkaScore homepage
Players - Pontuação total
  per page  Next page >>
Rank Ikariam player Alliance Score Type Score Updated
1 Governador J O N Ã O ॐBoB Pontuação total 19094237 15/07 17:08
2 GrimEyes ॐBoB Pontuação total 17817349 15/07 17:08
3 Helper ॐBoB Pontuação total 16362658 15/07 17:08
4 Reformista - Lost - ॐBoB Pontuação total 14291588 15/07 17:08
Support IkaScore

Please donate to    me@ikascore.com    using Skrill
5 Mentor Maggotti ॐBoB Pontuação total 13120506 15/07 17:08
6 _sophia Pontuação total 11965037 15/07 17:08
7 Apóstolo de Zeus El-Matador -Δ- Pontuação total 11252810 15/07 17:08
8 Yunero ॐBoB Pontuação total 10199600 15/07 17:08
9 Imperador Mário Júnior -Δ- Pontuação total 9287136 15/07 17:08
10 Big cheese ॐBoB Pontuação total 8348228 15/07 17:08
11 Apóstolo de Zeus Toy Soldier -FnC- Pontuação total 6148067 15/07 17:08
12 Campeão de Aquiles Hannibal URSS Pontuação total 5661031 15/07 17:08
13 Pedromal URSS Pontuação total 5548969 15/07 17:08
14 Lucam 10TC ॐBoB Pontuação total 5543519 15/07 17:08
15 Atacadista Dewa Kematian Pontuação total 5137600 15/07 17:08
16 Andy55 URSS Pontuação total 5063103 15/07 17:08
17 livassan07 Ø_Ø Pontuação total 4883119 15/07 17:08
18 Campeão de Aquiles rairodrigues -Δ- Pontuação total 4876184 15/07 17:08
19 Imperador Henrique100 HDX Pontuação total 4751958 15/07 17:08
20 Amante das Artes The SanT Ø_Ø Pontuação total 4661091 15/07 17:08
21 Pirata C-Johnny Depp URSS Pontuação total 4611463 15/07 17:08
22 nabuchadresar MINI Pontuação total 4579921 15/07 17:08
23 Rei dos Piratas D Luffy Pontuação total 4494017 15/07 17:08
24 Lord Rato Pontuação total 4481015 15/07 17:08
25 HAMATE HMT Pontuação total 4284641 15/07 17:08
26 LoI -ϟ- Pontuação total 4187785 15/07 17:08
27 Root -ϟ- Pontuação total 4142041 15/07 17:08
28 Tesoureiro do Rei Midas Lord_wolver ॐBoB Pontuação total 4027076 15/07 17:08
29 Cachorro Loko Pontuação total 3962108 15/07 17:08
30 Rato de Laboratório erikeac Pontuação total 3856279 15/07 17:08
31 Caçador de Pontos muido Pontuação total 3696133 15/07 17:08
32 Percy Jackson Pontuação total 3680889 15/07 17:08
33 Rei dos Piratas Who75 Pontuação total 3639071 15/07 17:08
34 Amante das Artes henrryky ॐBoB Pontuação total 3566659 15/07 17:08
35 Sísifo Jaunzim Ø_Ø Pontuação total 3528191 15/07 17:08
36 rodriguinho08 URSS Pontuação total 3506787 15/07 17:08
37 Guardião da Torre de Marfim Muribeca -ϟ- Pontuação total 3470460 15/07 17:08
38 chico zé -Δ- Pontuação total 3410779 15/07 17:08
39 jsilva3000 ॐBoB Pontuação total 3402601 15/07 17:08
40 Marushi ॐBoB Pontuação total 3402076 15/07 17:08
41 o guerreiro Pontuação total 3311383 15/07 17:08
42 Patrono THE CROW -ϟ- Pontuação total 3292704 15/07 17:08
43 kenia Pontuação total 3273716 15/07 17:08
44 Campeão de Aquiles Radamanthys ॐBoB Pontuação total 3269338 15/07 17:08
45 Patrono TBKs_LORDÃO ॐBoB Pontuação total 3253962 15/07 17:08
46 Caçador de Pontos maxs -ϟ- Pontuação total 3148192 15/07 17:08
47 Martelo dos Bárbaros Thanatus Pontuação total 3088360 15/07 17:08
48 F-I-V-E - 0 -FnC- Pontuação total 3068326 15/07 17:08
49 Mentor -MEDEOTTO- -Δ- Pontuação total 3047461 15/07 17:08
50 Milagreiro Becarefull -ϟ- Pontuação total 3038029 15/07 17:08
51 Sísifo H M E M N O N Ø_Ø Pontuação total 3027395 15/07 17:08
52 HUNTER URSS Pontuação total 2861010 15/07 17:08
53 Jack The Ripper ॐBoB Pontuação total 2724987 15/07 17:08
54 Amante das Artes 6_TCS_LIVRES URSS Pontuação total 2657072 15/07 17:08
55 Rei do Negócio de Armas General Killer Pontuação total 2645620 15/07 17:08
56 Dobis ॐBoB Pontuação total 2634347 15/07 17:08
57 Mentor HaDDeR Pontuação total 2530082 15/07 17:08
58 Patrono Orpheu ॐBoB Pontuação total 2510178 15/07 17:08
59 Necrox MINI Pontuação total 2509789 15/07 17:08
60 Antony Pontuação total 2489135 15/07 17:08
61 nortongrey URSS Pontuação total 2412756 15/07 17:08
62 Tesoureiro do Rei Midas DemonWizzard Pontuação total 2322562 15/07 17:08
63 Caçador de Pontos Gaúcho Pontuação total 2279630 15/07 17:08
64 Caçador de Pontos JUSTICEIRO 35TC -Δ- Pontuação total 2264489 15/07 17:08
65 Grandmaster Pontuação total 2210517 15/07 17:08
66 Caçador de Pontos JAB ॐBoB Pontuação total 2151978 15/07 17:08
67 Detetive tempestade Pontuação total 2146952 15/07 17:08
68 --CONAN-- Pontuação total 2142264 15/07 17:08
69 Caçador de Pontos ABU SALAM -FnC- Pontuação total 2105736 15/07 17:08
70 Rei do Negócio de Armas Mareshall URSS Pontuação total 2104856 15/07 17:08
71 Gilberto30 URSS Pontuação total 2094317 15/07 17:08
72 Jeane Silva URSS Pontuação total 2027739 15/07 17:08
73 Wizard -ϟ- Pontuação total 2014101 15/07 17:08
74 Maratonista bidu-vinicius Pontuação total 2012073 15/07 17:08
75 Campeão de Hércules SC_ -FnC- Pontuação total 1981562 15/07 17:08
76 Aprendiz de Pirata sacerdote Pontuação total 1957662 15/07 17:08
77 Aprendiz de Pirata carino URSS Pontuação total 1937263 15/07 17:08
78 Presidente da Câmara LoboSolitário Ø_Ø Pontuação total 1915270 15/07 17:08
79 Sísifo Nordestino ॐBoB Pontuação total 1907123 15/07 17:08
80 Mentor Simonselos -7- Pontuação total 1784962 15/07 17:08
81 Amante das Artes Bindy Pontuação total 1760608 15/07 17:08
82 bravo04 Pontuação total 1737824 15/07 17:08
83 Caçador de Pontos ATHOS Pontuação total 1670181 15/07 17:08
84 gallina Pontuação total 1634180 15/07 17:08
85 Campeão de Hércules Tigre_ninja Pontuação total 1624151 15/07 17:08
86 Frank_Castle -ϟ- Pontuação total 1608880 15/07 17:08
87 denilson07 Pontuação total 1596258 15/07 17:08
88 Presidente da Câmara -Ares- Pontuação total 1425507 15/07 17:08
89 Martelo dos Bárbaros vlad tepes Pontuação total 1419804 15/07 17:08
90 Dragonet Pontuação total 1387156 15/07 17:08
91 Maratonista Mestre Byron -ϟ- Pontuação total 1284465 15/07 17:08
92 Inimigo2 Pontuação total 1280616 15/07 17:08
93 Marceljiu MINI Pontuação total 1257940 15/07 17:08
94 Capitão Pirata Kimura Pontuação total 1255460 15/07 17:08
95 LT-Matrix Pontuação total 1207500 15/07 17:08
96 O SEU PESADELO NTTAS Pontuação total 1195909 15/07 17:08
97 The RaVeN Pontuação total 1167204 15/07 17:08
98 Presidente da Câmara kaquario RVOS Pontuação total 1162815 15/07 17:08
99 Tesoureiro do Rei Midas Xablau Pontuação total 1132753 15/07 17:08
100 Amante das Artes Baruk -Δ- Pontuação total 1123328 15/07 17:08
  per page  Next page >>

Copyright © 2010 IkaScore.com All Rights Reserved | Disclaimer